User: anonymous   Login
Location: Montr�al
(45.5000°N, 73.5830°W)
Time: 07:31:33
(UTC-04:00)
Language:

Cosmos 2369 - Orbit

View from above orbital plane
View from above orbital plane
View from above satellite
View from above satellite

Ground track
Ground track

The orbit data is extracted from the following two-line orbital elements,

1 26069U 00006A   15141.52310737  .00000032  00000-0  42392-4 0  9998
2 26069 070.9911 146.2137 0012776 291.8952 215.0765 14.13285369789074
Epoch (UTC): 21 May 2015 12:33:16
Eccentricity: 0.0012776
inclination: 70.9911°
perigee height: 839 km
apogee height: 857 km
right ascension of ascending node: 146.2137°
argument of perigee: 291.8952°
revolutions per day: 14.13285369
mean anomaly at epoch: 215.0765°
orbit number at epoch: 78907

The dashed part of the orbit path shows where the satellite is in the earth's shadow,  

DLR